Location: Unspecified
(30.8000°N, 0.0000°E)
Time: 10:44:05
(UTC+00:00)

Vanguard 1 Rocket - Visible Passes

Search period start: 04 April 2026 00:00
Search period end: 14 April 2026 00:00
Orbit: 654 x 4213 km, 34.3° (Epoch: 28 March)

Date Brightness Start Highest point End Pass type
(mag) Time Alt. Az. Time Alt. Az. Time Alt. Az.
4 Apr 9.5 01:20:32 58° E 01:20:32 58° E 01:28:16 10° ENE visible
4 Apr 8.8 03:37:39 31° W 03:45:18 74° N 03:53:00 10° E visible
4 Apr 11.1 21:09:20 10° SSW 21:21:00 26° S 21:21:00 26° S visible
4 Apr 10.4 23:37:14 10° SW 00:11:31 28° E 00:15:46 10° ENE visible
5 Apr 9.1 02:28:37 64° W 02:31:27 80° N 02:41:04 10° ENE visible
5 Apr 8.3 04:46:41 10° WNW 04:59:11 81° NNE 05:05:33 10° E visible
5 Apr 11.1 19:58:06 10° S 20:13:38 22° SE 20:13:38 22° SE visible
5 Apr 11.1 22:21:35 10° SW 23:02:26 10° ENE 23:02:35 10° ENE visible
6 Apr 9.5 01:19:31 70° ENE 01:19:31 70° ENE 01:28:54 10° ENE visible
6 Apr 8.8 03:36:37 26° W 03:45:55 75° N 03:53:46 10° E visible
6 Apr 11.4 18:53:43 10° SE 18:59:23 11° SE 19:04:59 10° ESE visible
6 Apr 10.8 21:07:29 10° SSW 21:23:46 36° S 21:23:46 36° S visible
6 Apr 10.2 23:36:36 10° WSW 00:10:21 37° E 00:16:22 10° ENE visible
7 Apr 9.2 02:27:26 55° WNW 02:31:57 77° N 02:41:47 10° E visible
7 Apr 8.3 04:46:53 10° WNW 04:59:46 89° SSW 05:06:16 10° ESE visible
7 Apr 10.9 19:55:19 10° S 20:14:43 28° SE 20:16:51 28° SE visible
7 Apr 10.9 22:20:34 10° SW 23:01:06 17° ENE 23:03:14 10° ENE visible
8 Apr 9.5 01:18:10 82° NE 01:18:10 82° NE 01:29:33 10° ENE visible
8 Apr 8.9 03:35:14 22° WNW 03:46:31 79° N 03:54:33 10° E visible
8 Apr 11.2 18:46:31 10° SSE 18:59:17 16° SE 19:10:13 12° ESE visible
8 Apr 10.5 21:06:03 10° SSW 21:51:43 - ENE 21:27:34 47° SSE visible
8 Apr 10.1 23:36:12 10° WSW 00:08:46 49° ENE 00:16:56 10° ENE visible
9 Apr 9.3 02:25:50 45° WNW 02:32:28 77° N 02:42:32 10° E visible
9 Apr 8.4 04:47:01 10° WNW 05:00:15 78° SSW 05:06:55 10° ESE visible
9 Apr 10.7 19:53:16 10° SSW 20:14:20 35° SE 20:21:19 31° ESE visible
9 Apr 10.5 22:19:50 10° SW 22:59:12 26° ENE 23:03:47 10° ENE visible
10 Apr 9.6 00:53:48 10° W 01:17:38 81° N 01:30:12 10° ENE visible
10 Apr 8.9 03:33:15 16° WNW 03:47:05 84° NNE 03:55:18 10° ESE visible
10 Apr 11.2 18:42:51 10° S 18:58:56 22° SE 19:15:19 10° E visible
10 Apr 10.3 21:04:59 10° SW 21:29:48 56° SE 21:49:50 10° ENE visible
10 Apr 9.9 23:36:00 10° WSW 00:06:18 66° ENE 00:17:30 10° ENE visible
11 Apr 9.3 02:23:17 35° WNW 02:33:00 78° N 02:43:17 10° E visible
11 Apr 8.5 04:47:08 10° WNW 05:00:37 66° SSW 05:07:28 10° SE visible
11 Apr 10.7 19:51:44 10° SSW 20:13:50 42° SE 20:28:04 24° E visible
11 Apr 10.1 22:19:21 10° SW 22:55:39 43° E 23:04:16 10° ENE visible
12 Apr 9.7 00:53:54 10° W 01:18:01 79° N 01:30:53 10° E visible
12 Apr 8.9 03:30:10 10° WNW 03:47:34 88° SSW 03:56:00 10° ESE visible
12 Apr 11.0 18:40:25 10° S 18:58:23 28° SE 19:17:20 10° E visible
12 Apr 10.3 21:04:12 10° SW 21:29:26 64° SSE 21:50:20 10° ENE visible
12 Apr 9.9 23:35:57 10° WSW 00:02:13 86° NNW 00:18:04 10° ENE visible
13 Apr 9.3 02:12:19 10° W 02:33:30 81° N 02:44:01 10° E visible
13 Apr 8.7 04:47:16 10° WNW 05:00:50 55° SW 05:07:52 10° SE visible
13 Apr 10.6 19:50:36 10° SSW 20:13:16 49° SE 20:35:20 10° ENE visible
13 Apr 10.2 22:19:06 10° WSW 22:45:47 84° SSE 23:04:45 10° ENE visible
